Tracking 19246 objects as of 19-Aug-2018
HD Live streaming from Space Station
objects crossing your sky now

COSMOS 450

Track COSMOS 450 now!
10-day predictions
COSMOS 450 is classified as:


NORAD ID: 5553
Int'l Code: 1971-086G
Perigee: 1,468.8 km
Apogee: 1,536.2 km
Inclination: 74.0 °
Period: 115.9 minutes
Semi major axis: 7873 km
RCS: 0.7187 m2 (medium)
Launch date: October 13, 1971
Source: Commonwealth of Independent States (former USSR) (CIS)
Launch site: PLESETSK MISSILE AND SPACE COMPLEX (PKMTR)
aabbcc
Your satellite tracking list
Your tracking list is empty




NASA's NSSDC Master Catalog

Two Line Element Set (TLE):
1 05553U 71086G   18231.21952552 -.00000014  00000-0  11858-4 0  9999
2 05553  74.0278 128.5688 0042763   3.7920 166.9979 12.42657737125479
Source of the keplerian elements: AFSPC